| time (UTC) | temp C | wind direction | speed KPH | gust KPH | rain 1hr cm | rain 24hr cm | rain mn cm | humidity % | barometer mb |
| 20260506033211 | 7 | 105 | 0.0 | 0.0 | 0.00 | 0.00 | 0.00 | 94 | 1006.3 |
| 20260506030212 | 6 | 124 | 0.0 | 0.0 | 0.00 | 0.00 | 0.00 | 94 | 1006.7 |
| 20260506023211 | 6 | 109 | 3.2 | 0.0 | 0.00 | 0.00 | 0.00 | 93 | 1007.1 |
| 20260506020212 | 7 | 182 | 0.0 | 0.0 | 0.00 | 0.00 | 0.00 | 93 | 1007.0 |
| 20260506013211 | 7 | 202 | 0.0 | 0.0 | 0.00 | 0.00 | 0.00 | 92 | 1007.1 |
| 20260506010212 | 8 | 107 | 8.0 | 0.0 | 0.00 | 0.00 | 0.00 | 94 | 1007.5 |
| 20260506003209 | 8 | 94 | 0.0 | 0.0 | 0.00 | 0.00 | 0.00 | 92 | 1007.4 |
| 20260506000211 | 8 | 94 | 0.0 | 0.0 | 0.00 | 0.00 | 0.00 | 91 | 1007.6 |
| 20260505233209 | 8 | 97 | 4.8 | 0.0 | 0.00 | 0.00 | 0.00 | 91 | 1008.0 |
| 20260505230209 | 8 | 91 | 0.0 | 0.0 | 0.00 | 0.00 | 0.00 | 92 | 1008.0 |
| 20260505223209 | 8 | 90 | 0.0 | 0.0 | 0.00 | 0.00 | 0.00 | 93 | 1008.0 |
| 20260505220209 | 8 | 112 | 1.6 | 0.0 | 0.00 | 0.00 | 0.00 | 92 | 1008.1 |
| 20260505213211 | 9 | 110 | 0.0 | 0.0 | 0.00 | 0.00 | 0.36 | 90 | 1008.3 |
| 20260505210215 | 10 | 69 | 3.2 | 0.0 | 0.00 | 0.00 | 0.36 | 88 | 1008.2 |
| 20260505203209 | 10 | 108 | 6.4 | 0.0 | 0.00 | 0.00 | 0.36 | 91 | 1007.9 |
| 20260505200210 | 11 | 196 | 4.8 | 0.0 | 0.00 | 0.00 | 0.36 | 90 | 1007.7 |
| 20260505193209 | 11 | 248 | 1.6 | 0.0 | 0.00 | 0.00 | 0.36 | 89 | 1007.2 |
| 20260505190215 | 11 | 210 | 3.2 | 0.0 | 0.00 | 0.00 | 0.36 | 87 | 1007.3 |
| 20260505183212 | 11 | 194 | 0.0 | 0.0 | 0.00 | 0.00 | 0.36 | 87 | 1007.1 |
| 20260505180211 | 12 | 128 | 3.2 | 0.0 | 0.00 | 0.00 | 0.36 | 86 | 1006.9 |
| 20260505173210 | 12 | 93 | 0.0 | 0.0 | 0.00 | 0.00 | 0.36 | 86 | 1007.1 |
| 20260505170210 | 11 | 206 | 3.2 | 0.0 | 0.00 | 0.00 | 0.36 | 86 | 1006.9 |
| 20260505163211 | 11 | 178 | 3.2 | 0.0 | 0.00 | 0.00 | 0.33 | 84 | 1006.8 |
| 20260505153210 | 16 | 226 | 6.4 | 0.0 | 0.00 | 0.00 | 0.20 | 67 | 1006.1 |
| 20260505150215 | 16 | 311 | 4.8 | 0.0 | 0.00 | 0.00 | 0.20 | 67 | 1005.9 |
| 20260505140210 | 15 | 102 | 6.4 | 0.0 | 0.00 | 0.00 | 0.20 | 77 | 1006.2 |
| 20260505130210 | 12 | 130 | 3.2 | 0.0 | 0.00 | 0.00 | 0.20 | 81 | 1006.9 |
| 20260505123210 | 12 | 114 | 6.4 | 0.0 | 0.00 | 0.00 | 0.18 | 83 | 1007.3 |
| 20260505120210 | 12 | 76 | 0.0 | 0.0 | 0.00 | 0.00 | 0.15 | 82 | 1007.3 |
| 20260505113210 | 13 | 87 | 0.0 | 0.0 | 0.00 | 0.00 | 0.13 | 77 | 1007.4 |
| 20260505110211 | 13 | 212 | 3.2 | 0.0 | 0.00 | 0.00 | 0.10 | 82 | 1007.3 |
| 20260505100212 | 13 | 216 | 4.8 | 0.0 | 0.00 | 0.00 | 0.03 | 80 | 1007.4 |
| 20260505093212 | 15 | 334 | 6.4 | 0.0 | 0.00 | 0.00 | 0.00 | 70 | 1007.3 |
| 20260505090211 | 15 | 300 | 4.8 | 0.0 | 0.00 | 0.00 | 0.00 | 68 | 1007.2 |
| 20260505083211 | 15 | 315 | 0.0 | 0.0 | 0.00 | 0.00 | 0.00 | 68 | 1007.2 |
| 20260505080210 | 14 | 69 | 3.2 | 0.0 | 0.00 | 0.00 | 0.00 | 74 | 1007.3 |
| 20260505073210 | 13 | 54 | 6.4 | 0.0 | 0.00 | 0.00 | 0.00 | 80 | 1007.7 |
| 20260505070211 | 12 | 49 | 0.0 | 0.0 | 0.00 | 0.00 | 0.00 | 81 | 1007.9 |
| 20260505063211 | 12 | 257 | 0.0 | 0.0 | 0.00 | 0.00 | 0.00 | 82 | 1008.0 |
| 20260505060212 | 11 | 82 | 0.0 | 0.0 | 0.00 | 0.00 | 0.00 | 83 | 1008.1 |
| 20260505053211 | 10 | 82 | 0.0 | 0.0 | 0.00 | 0.00 | 0.00 | 86 | 1008.2 |
| 20260505050211 | 9 | 355 | 0.0 | 0.0 | 0.00 | 0.00 | 0.00 | 88 | 1008.4 |
| 20260505040210 | 8 | 355 | 0.0 | 0.0 | 0.00 | 0.00 | 0.00 | 90 | 1008.7 |